Alpine, TX

3:53 PM CST on February 08, 2016 (GMT -0600)
Alpine

Weather History for KE38 - July, 2013

Change the Weather History Date:

Thursday, July 25, 2013

  Actual Average (KMRF) Record (KMRF)
Temperature  
Mean Temperature 75 °F -  
Max Temperature 91 °F 85 °F 95 °F (2000)
Min Temperature 59 °F 59 °F 55 °F (1998)
Cooling Degree Days 10    
Growing Degree Days 25 (Base 50)    
Moisture  
Dew Point 57 °F    
Average Humidity 64    
Maximum Humidity 94    
Minimum Humidity 24    
Precipitation  
Precipitation 0.00 in - - ()
Sea Level Pressure  
Sea Level Pressure 30.23 in    
Wind  
Wind Speed 3 mph (South)    
Max Wind Speed 10 mph    
Max Gust Speed -    
Visibility 10 miles    
Events      
Averages and records for this station are not official NWS values.
T = Trace of Precipitation, MM = Missing Value Source: NWS Daily Summary

Daily Weather History Graph

Daily Weather History Graph

Search for Another Location

Airport or City:

Trip Planner

Search our weather history database for the weather conditions in past years. The results will help you decide how hot, cold, wet, or windy it might be!

Date:

Astronomy

Jul. 25, 2013 Rise Set
Actual Time 7:08 AM CDT 8:53 PM CDT
Civil Twilight 6:42 AM CDT 9:19 PM CDT
Nautical Twilight 6:10 AM CDT 9:51 PM CDT
Astronomical Twilight 5:37 AM CDT 10:24 PM CDT
Moon 10:56 PM CDT (7/25) 10:22 AM CDT (7/25)
Length of Visible Light 14h 37m
Length of Day
13h 44m
Waning Gibbous, 88% of the Moon is Illuminated
Jul 25
Waning Gibbous
Jul 29
Last Quarter
Aug 6
New
Aug 14
First Quarter
Aug 20
Full

Hourly Weather History & Observations

Time (CDT) Temp. Heat Index Dew Point Humidity Pressure Visibility Wind Dir Wind Speed Gust Speed Precip Events Conditions
12:15 AM 69.3 °F - 59.0 °F 70% 30.21 in 10.0 mi Calm Calm - N/A   Clear
12:35 AM 69.4 °F - 58.6 °F 68% 30.21 in 10.0 mi Calm Calm - N/A   Clear
12:55 AM 70.9 °F - 58.1 °F 64% 30.21 in 10.0 mi SE 3.5 mph - N/A   Clear
1:15 AM 72.1 °F - 57.7 °F 60% 30.20 in 10.0 mi Calm Calm - N/A   Clear
1:35 AM 68.7 °F - 58.8 °F 71% 30.20 in 10.0 mi Calm Calm - N/A   Clear
1:55 AM 65.3 °F - 60.3 °F 84% 30.21 in 10.0 mi SW 3.5 mph - N/A   Clear
2:15 AM 65.8 °F - 59.9 °F 81% 30.21 in 10.0 mi Calm Calm - N/A   Clear
2:35 AM 63.7 °F - 60.1 °F 88% 30.21 in 10.0 mi WSW 3.5 mph - N/A   Clear
2:55 AM 63.0 °F - 59.9 °F 90% 30.20 in 10.0 mi Calm Calm - N/A   Clear
3:15 AM 63.5 °F - 59.9 °F 88% 30.20 in 10.0 mi SSW 4.6 mph - N/A   Clear
3:35 AM 63.5 °F - 59.9 °F 88% 30.20 in 10.0 mi WSW 5.8 mph - N/A   Clear
3:55 AM 62.2 °F - 59.9 °F 92% 30.20 in 10.0 mi SW 5.8 mph - N/A   Clear
4:15 AM 62.4 °F - 59.7 °F 91% 30.21 in 10.0 mi WSW 5.8 mph - N/A   Clear
4:35 AM 62.8 °F - 59.5 °F 89% 30.21 in 10.0 mi WSW 3.5 mph - N/A   Clear
4:55 AM 61.3 °F - 59.0 °F 92% 30.22 in 10.0 mi SW 4.6 mph - N/A   Clear
5:15 AM 61.7 °F - 59.2 °F 91% 30.22 in 10.0 mi WSW 4.6 mph - N/A   Clear
5:35 AM 62.1 °F - 59.4 °F 91% 30.22 in 10.0 mi WSW 4.6 mph - N/A   Clear
5:55 AM 62.1 °F - 59.2 °F 90% 30.22 in 10.0 mi West 4.6 mph - N/A   Clear
6:35 AM 62.1 °F - 59.0 °F 90% 30.23 in 10.0 mi West 3.5 mph - N/A   Clear
6:55 AM 59.4 °F - 57.7 °F 94% 30.23 in 10.0 mi South 4.6 mph - N/A   Clear
7:15 AM 60.3 °F - 58.3 °F 93% 30.23 in 10.0 mi SSW 5.8 mph - N/A   Clear
7:35 AM 60.8 °F - 58.3 °F 91% 30.24 in 10.0 mi South 4.6 mph - N/A   Clear
7:55 AM 61.7 °F - 59.2 °F 91% 30.24 in 10.0 mi Calm Calm - N/A   Clear
8:15 AM 63.7 °F - 60.3 °F 89% 30.24 in 10.0 mi Calm Calm - N/A   Clear
8:35 AM 65.5 °F - 60.4 °F 84% 30.25 in 10.0 mi Calm Calm - N/A   Clear
8:55 AM 68.7 °F - 61.2 °F 77% 30.27 in 10.0 mi Calm Calm - N/A   Clear
9:15 AM 70.2 °F - 61.7 °F 74% 30.28 in 10.0 mi Calm Calm - N/A   Clear
10:35 AM 75.7 °F - 61.3 °F 61% 30.28 in 10.0 mi East 4.6 mph - N/A   Clear
10:55 AM 77.4 °F - 59.9 °F 55% 30.28 in 10.0 mi Calm Calm - N/A   Clear
12:35 PM 82.9 °F 82.3 °F 56.1 °F 40% 30.28 in 10.0 mi East 8.1 mph - N/A   Clear
12:55 PM 83.3 °F 82.5 °F 56.1 °F 39% 30.27 in 10.0 mi NNE 8.1 mph - N/A   Clear
1:15 PM 84.2 °F 83.3 °F 57.0 °F 39% 30.26 in 10.0 mi East 5.8 mph - N/A   Clear
1:35 PM 86.0 °F 84.9 °F 56.7 °F 37% 30.26 in 10.0 mi NNE 9.2 mph - N/A   Clear
1:55 PM 86.4 °F 85.1 °F 56.3 °F 36% 30.25 in 10.0 mi ENE 4.6 mph - N/A   Clear
3:35 PM 90.7 °F - 49.8 °F 25% 30.23 in 10.0 mi East 5.8 mph - N/A   Clear
3:55 PM 91.0 °F - 49.3 °F 24% 30.22 in 10.0 mi East 5.8 mph - N/A   Clear
4:15 PM 90.3 °F - 48.4 °F 24% 30.22 in 10.0 mi ESE 5.8 mph - N/A   Clear
4:35 PM 90.0 °F - 48.4 °F 24% 30.21 in 10.0 mi Calm Calm - N/A   Scattered Clouds
4:55 PM 90.9 °F - 49.6 °F 24% 30.21 in 10.0 mi East 10.4 mph - N/A   Clear
5:55 PM 91.2 °F - 49.5 °F 24% 30.19 in 10.0 mi ESE 4.6 mph - N/A   Clear
6:35 PM 89.6 °F 87.3 °F 53.1 °F 29% 30.18 in 10.0 mi SE 8.1 mph - N/A   Scattered Clouds
8:35 PM 84.0 °F 82.5 °F 53.1 °F 34% 30.20 in 10.0 mi SE 10.4 mph - N/A   Clear
8:55 PM 82.8 °F - 52.5 °F 35% 30.20 in 10.0 mi SE 8.1 mph - N/A   Clear
10:35 PM 77.2 °F - 53.6 °F 44% 30.23 in 10.0 mi South 4.6 mph - N/A   Clear
11:15 PM 76.3 °F - 54.0 °F 46% 30.24 in 10.0 mi South 3.5 mph - N/A   Clear
11:35 PM 76.8 °F - 54.9 °F 46% 30.24 in 10.0 mi SSE 8.1 mph - N/A   Clear
11:55 PM 75.4 °F - 54.3 °F 48% 30.25 in 10.0 mi Calm Calm - N/A   Clear